Regional Weather Roundup
Issued by NWS Charleston, SC

Current Version | Previous Version | Text Only | Print | Product List | Glossary On
Versions: 1 2 3 4 5 6 7 8 9 10 11 12 13 14 15 16 17 18 19 20 21 22 23 24 25 26 27 28 29 30 31 32 33 34 35 36 37 38 39 40 41 42 43 44 45 46 47 48 49 50
000
ASUS42 KCHS 011125
RWRCHS

REGIONAL WEATHER ROUNDUP
NATIONAL WEATHER SERVICE CHARLESTON SC
700 AM EDT SAT NOV 01 2014

NOTE: "FAIR" INDICATES FEW OR NO CLOUDS BELOW 12,000 FEET WITH NO
SIGNIFICANT WEATHER AND/OR OBSTRUCTIONS TO VISIBILITY.

NOT ALL STATIONS ARE QUALITY CONTROLLED BY THE NATIONAL
WEATHER SERVICE. USE DATA WITH CAUTION...ESPECIALLY
DEWPOINT OBSERVATIONS.

SCZ027-030-031-034>040-042>050-011200-
...SOUTH CAROLINA...

CITY           SKY/WX    TMP DP  RH WIND       PRES   REMARKS
N CHARLESTON   MOCLDY    50  45  83 W14G22    29.72R
WATERFRONT PRK   N/A     50 N/A N/A W12         N/A
FORT JOHNSON   NOT AVBL
JOHNS ISLAND   CLOUDY    48  39  71 W21G29    29.74
PINOPOLIS      NOT AVBL
MONCKS CORNER  CLOUDY    48  45  87 W5        29.71
SUMMERVILLE    CLOUDY    45  41  87 SW18G25   29.74R
BEAUFORT MCAS    N/A    N/A N/A N/A MISG      29.79R
BEAUFORT ARPT  FAIR      45  32  61 W16G37    29.79R
HILTON HEAD IS PTCLDY    45  30  57 W17G38    29.82
GEORGETOWN     NOT AVBL
WALTERBORO     CLOUDY    45  30  57 W13G18    29.76S
ORANGEBURG     CLOUDY    43  35  73 W21G29    29.74R
BARNWELL       PTSUNNY   43  32  65 W15       29.77S
AIKEN          MIX PCPN  36  36 100 W13       29.79  WCI  27
MANNING        CLOUDY    45  43  93 W8G21     29.71
KINGSTREE      NOT AVBL
COLUMBIA       FLURRIES  36  34  92 W14       29.73R WCI  27
SUMTER         DRIZZLE   42  41  95 W21G26    29.66F
FLORENCE       CLOUDY    51  48  89 E7        29.64S
MYRTLE BEACH   CLEAR     48  45  87 W6        29.65F
N MYRTLE BEACH CLEAR     47  44  90 N3        29.65S

$$

GAZ063-065-086>088-099>101-113>116-118-119-134-136>141-150-011200-
...GEORGIA...

CITY           SKY/WX    TMP DP  RH WIND       PRES   REMARKS
SAVANNAH ARPT  PTCLDY    44  27  51 W15G28    29.84R
HUNTER AAF     CLEAR     42  28  56 W23G29    29.82R
FORT STEWART   CLEAR     42  26  52 W17G26    29.86S
STATESBORO     NOT AVBL
SYLVANIA       CLOUDY    48  37  65 W18G25    29.83R
CLAXTON        FAIR      43  30  61 W13G21    29.87S
THOMSON        CLOUDY    39  39 100 W12G17    29.86S WCI  32
AUGUSTA-BUSH   LGT RAIN  38  34  85 W15       29.81R WCI  29
AUGUSTA-DANIEL LGT RAIN  38  35  89 W13G21    29.80S WCI  30
SWAINSBORO     CLOUDY    43  32  65 W13G21    29.86F
VIDALIA        CLEAR     41  30  65 W7G21     29.89S
ALMA           CLEAR     41  25  53 W18G26    29.94R
WAYCROSS       CLEAR     45  29  55 NW13      29.95S
JESUP          FAIR      45  32  61 NW15G23   29.91S
BRUNSWICK      CLEAR     45  27  49 W14G23    29.92R
SAINT SIMONS   LGT RAIN  45  25  45 NW16G23   29.90R

$$

SCZ027-028-034-036>038-045-046-048>050-GAZ119-141-011200-
...LAKE AND SUPPLEMENTAL COASTAL OBSERVATIONS...

STATION/POSITION TIME  TEMP    WIND        PRES    WAVE   SWELL
                       AIR SEA DIR/SP/G            HT/PER HT/PER/DIR
                 (UTC) (F)     (DEG/KT/KT) (MB)    (FT/S) (FT/S/D)
UPR LAKE MARION  NOT AVBL
WINYAH BAY       1100   51     240/  9     1004.0S
LAKE MURRAY      1000   38     290/  7/ 15 1006.4R
ACE BASIN NERRS  1100   46     280/  9     1007.0S
FORT PULASKI     1100   46     280/ 27/ 33 1010.2R
SAPELO ISLAND    NOT AVBL

$$

ANZ835-935-AMZ111-154-330-350-352-354-374-450-454-472-011200-
...C-MAN AND BUOY OBSERVATIONS...

STATION/POSITION TIME  TEMP    WIND        PRES    WAVE   SWELL
                       AIR SEA DIR/SP/G            HT/PER HT/PER/DIR
                 (UTC) (F)     (DEG/KT/KT) (MB)    (FT/S) (FT/S/D)
FOLLY BEACH CMAN 1100   50     260/ 11/ 17 1006.7R
BUOY 41004       1100   59 76  270/ 21/ 25 1004.9R   5/ 5   2/12
BUOY 41008       1100   51 74  300/ 31/ 39 1009.8R   7/ 5
5E ST. MARYS GA  1100      74                N/A     5/ 4
FRYING PAN BUOY  1100   60 73  220/  8/ 12 1004.5R   3/ 8   3/ 90/ 8
BUOY 41025       1100   58     320/ 12/ 16 1004.5R   4/ 7   3/ 70/ 7
CAPE LOOKOUT NC  1100   53      10/  8/ 10 1004.8F
BUOY 41002       1045   71 77  290/ 19/ 23 1004.6R   5/10   3/110/10
BUOY 41010       1100   73 82  280/ 19/ 27 1009.0R   6/ 6   2/ 40/10
BUOY 41012       NOT AVBL
ST AUGUSTINE FL  1100   53     310/ 15/ 21 1013.0R
CAPERS NEARSHORE 1000   55     280/ 21/ 25   N/A
FRIPP NEARSHORE  NOT AVBL


$$



USA.gov is the U.S. government's official web portal to all federal, state and local government web resources and services.